When you browse on this site, cookies collect data to enhance your experience and personalize the content and advertising you see.
Visit our Privacy Policy to learn more. By continuing to use the site, you agree to this use of cookies and data.
  • In Portugal
  • List of Countries
  • For 7 days
  • Water Temperature
  • Satellite Maps
  • Weather Map
  • Weather Widgets
  • user-avatar
    Login

    Hourly Weather Bagdad

    Today, 20 November, Tuesday

    Time Temperature Precipitation Wind Pressure Humidity
    00:00 +19°C° 0 mm 3 mps 761 mmHg 44%
    01:00 +18°C° 0 mm 3 mps 761 mmHg 45%
    02:00 +18°C° 0 mm 3 mps 761 mmHg 45%
    03:00 +18°C° 0 mm 4 mps 761 mmHg 45%
    04:00 +18°C° 0 mm 4 mps 761 mmHg 45%
    05:00 +17°C° 0 mm 3 mps 761 mmHg 46%
    06:00 +17°C° 0 mm 3 mps 761 mmHg 46%
    07:00 +18°C° 0 mm 4 mps 761 mmHg 43%
    08:00 +19°C° 0 mm 4 mps 761 mmHg 40%
    09:00 +20°C° 0 mm 4 mps 761 mmHg 37%
    10:00 +21°C° 0 mm 4 mps 761 mmHg 34%
    11:00 +22°C° 0 mm 5 mps 761 mmHg 30%
    12:00 +23°C° 0 mm 5 mps 761 mmHg 27%
    13:00 +25°C° 0 mm 5 mps 761 mmHg 26%
    14:00 +25°C° 0 mm 5 mps 761 mmHg 26%
    15:00 +25°C° 0 mm 5 mps 760 mmHg 25%
    16:00 +23°C° 0 mm 5 mps 760 mmHg 28%
    17:00 +22°C° 0 mm 4 mps 761 mmHg 30%
    18:00 +21°C° 0 mm 3 mps 761 mmHg 33%
    19:00 +21°C° 0 mm 3 mps 761 mmHg 34%
    20:00 +20°C° 0 mm 3 mps 761 mmHg 36%
    21:00 +20°C° 0 mm 2 mps 761 mmHg 38%
    22:00 +20°C° 0 mm 2 mps 761 mmHg 39%
    23:00 +19°C° 0 mm 2 mps 760 mmHg 41%

    Tomorrow, 21 November, Wednesday

    Time Temperature Precipitation Wind Pressure Humidity
    00:00 +19°C° 0 mm 2 mps 760 mmHg 43%
    01:00 +19°C° 0 mm 2 mps 760 mmHg 44%
    02:00 +18°C° 0 mm 2 mps 760 mmHg 46%
    03:00 +18°C° 0 mm 2 mps 760 mmHg 47%
    04:00 +19°C° 0 mm 1 mps 760 mmHg 49%
    05:00 +18°C° 0 mm 1 mps 760 mmHg 51%
    06:00 +18°C° 0 mm 1 mps 760 mmHg 52%
    07:00 +19°C° 0 mm 1 mps 760 mmHg 48%
    08:00 +20°C° 0 mm 1 mps 760 mmHg 44%
    09:00 +20°C° 0 mm 0 mps 761 mmHg 40%
    10:00 +23°C° 0 mm 1 mps 760 mmHg 37%
    11:00 +24°C° 0 mm 1 mps 760 mmHg 34%
    12:00 +25°C° 0 mm 1 mps 760 mmHg 31%
    13:00 +25°C° 0 mm 1 mps 760 mmHg 30%
    14:00 +26°C° 0 mm 1 mps 759 mmHg 29%
    15:00 +26°C° 0 mm 1 mps 759 mmHg 29%
    16:00 +25°C° 0 mm 1 mps 759 mmHg 31%
    17:00 +24°C° 0 mm 1 mps 759 mmHg 34%
    18:00 +23°C° 0 mm 1 mps 759 mmHg 37%
    19:00 +23°C° 0 mm 1 mps 759 mmHg 38%
    20:00 +23°C° 0 mm 1 mps 759 mmHg 39%
    21:00 +21°C° 0 mm 2 mps 759 mmHg 39%
    22:00 +21°C° 0 mm 2 mps 759 mmHg 39%
    23:00 +21°C° 0 mm 2 mps 759 mmHg 39%

    Day after tomorrow, 22 November, Thursday

    Time Temperature Precipitation Wind Pressure Humidity
    00:00 +21°C° 0 mm 3 mps 759 mmHg 38%
    01:00 +21°C° 0 mm 3 mps 758 mmHg 38%
    02:00 +21°C° 0 mm 3 mps 758 mmHg 38%
    03:00 +21°C° 0 mm 3 mps 758 mmHg 38%
    04:00 +20°C° 0 mm 3 mps 758 mmHg 39%
    05:00 +20°C° 0 mm 3 mps 758 mmHg 39%
    06:00 +20°C° 0 mm 3 mps 758 mmHg 39%
    07:00 +20°C° 0 mm 4 mps 758 mmHg 37%
    08:00 +21°C° 0 mm 4 mps 758 mmHg 36%
    09:00 +22°C° 0 mm 5 mps 759 mmHg 34%
    10:00 +22°C° 0 mm 5 mps 758 mmHg 32%
    11:00 +23°C° 0 mm 5 mps 758 mmHg 30%
    12:00 +25°C° 0 mm 5 mps 758 mmHg 28%
    13:00 +25°C° 0 mm 5 mps 757 mmHg 28%
    14:00 +25°C° 0 mm 5 mps 757 mmHg 28%
    15:00 +25°C° 0 mm 4 mps 757 mmHg 29%
    16:00 +25°C° 0 mm 4 mps 757 mmHg 31%
    17:00 +23°C° 0 mm 4 mps 757 mmHg 33%
    18:00 +22°C° 0 mm 3 mps 757 mmHg 35%
    19:00 +22°C° 0 mm 4 mps 757 mmHg 35%
    20:00 +22°C° 0 mm 4 mps 757 mmHg 35%
    21:00 +22°C° 0 mm 5 mps 758 mmHg 35%
    22:00 +22°C° 0 mm 5 mps 757 mmHg 36%
    23:00 +21°C° 0 mm 5 mps 757 mmHg 37%

    23 November, Friday

    Time Temperature Precipitation Wind Pressure Humidity
    00:00 +21°C° 0 mm 5 mps 757 mmHg 37%
    01:00 +21°C° 0 mm 5 mps 757 mmHg 38%
    02:00 +20°C° 0 mm 5 mps 757 mmHg 38%
    03:00 +20°C° 0 mm 5 mps 757 mmHg 39%
    04:00 +20°C° 0 mm 5 mps 757 mmHg 41%
    05:00 +20°C° 0 mm 6 mps 757 mmHg 43%
    06:00 +19°C° 0 mm 6 mps 757 mmHg 46%
    07:00 +18°C° 0 mm 7 mps 757 mmHg 49%
    08:00 +20°C° 0 mm 8 mps 757 mmHg 52%
    09:00 +20°C° 0 mm 8 mps 758 mmHg 55%
    10:00 +19°C° 0 mm 9 mps 757 mmHg 55%
    11:00 +19°C° 0 mm 9 mps 757 mmHg 55%
    12:00 +21°C° 0 mm 9 mps 757 mmHg 55%
    13:00 +19°C° 0.1 mm 9 mps 757 mmHg 57%
    14:00 +18°C° 0.1 mm 9 mps 757 mmHg 60%
    15:00 +18°C° 0.1 mm 9 mps 757 mmHg 62%
    16:00 +17°C° 0.1 mm 8 mps 757 mmHg 64%
    17:00 +16°C° 0.1 mm 8 mps 757 mmHg 66%
    18:00 +16°C° 0.1 mm 7 mps 758 mmHg 68%
    19:00 +16°C° 0 mm 7 mps 758 mmHg 68%
    20:00 +15°C° 0 mm 6 mps 758 mmHg 69%
    21:00 +15°C° 0 mm 6 mps 758 mmHg 70%
    22:00 +15°C° 0 mm 5 mps 759 mmHg 70%
    23:00 +15°C° 0 mm 5 mps 759 mmHg 70%

    24 November, Saturday

    Time Temperature Precipitation Wind Pressure Humidity
    00:00 +15°C° 0 mm 4 mps 759 mmHg 70%
    01:00 +15°C° 0.1 mm 4 mps 759 mmHg 71%
    02:00 +16°C° 0.1 mm 3 mps 759 mmHg 71%
    03:00 +14°C° 0.1 mm 3 mps 759 mmHg 72%
    04:00 +14°C° 0.1 mm 3 mps 759 mmHg 73%
    05:00 +14°C° 0.1 mm 3 mps 759 mmHg 73%
    06:00 +15°C° 0.1 mm 2 mps 759 mmHg 74%
    07:00 +16°C° 0 mm 3 mps 760 mmHg 71%
    08:00 +17°C° 0 mm 3 mps 760 mmHg 67%
    09:00 +17°C° 0 mm 3 mps 760 mmHg 64%
    10:00 +18°C° 0 mm 3 mps 760 mmHg 62%
    11:00 +19°C° 0 mm 3 mps 760 mmHg 60%
    12:00 +19°C° 0 mm 3 mps 760 mmHg 57%
    13:00 +20°C° 0.1 mm 3 mps 759 mmHg 59%
    14:00 +20°C° 0.1 mm 3 mps 759 mmHg 60%
    15:00 +20°C° 0.1 mm 3 mps 759 mmHg 61%
    16:00 +20°C° 0 mm 3 mps 759 mmHg 64%
    17:00 +20°C° 0 mm 3 mps 759 mmHg 67%
    18:00 +20°C° 0 mm 3 mps 759 mmHg 69%
    19:00 +19°C° 0.7 mm 3 mps 759 mmHg 72%
    20:00 +19°C° 0.7 mm 3 mps 759 mmHg 74%
    21:00 +19°C° 0.7 mm 3 mps 759 mmHg 76%
    22:00 +18°C° 1.9 mm 3 mps 759 mmHg 76%
    23:00 +18°C° 1.9 mm 4 mps 758 mmHg 77%

    25 November, Sunday

    Time Temperature Precipitation Wind Pressure Humidity
    00:00 +18°C° 1.9 mm 4 mps 758 mmHg 78%
    01:00 +18°C° 2.3 mm 4 mps 758 mmHg 79%
    02:00 +17°C° 2.3 mm 5 mps 758 mmHg 81%
    03:00 +17°C° 2.3 mm 5 mps 757 mmHg 83%
    04:00 +17°C° 0.6 mm 5 mps 757 mmHg 83%
    05:00 +16°C° 0.6 mm 5 mps 757 mmHg 84%
    06:00 +16°C° 0.6 mm 5 mps 757 mmHg 84%
    07:00 +18°C° 0.2 mm 4 mps 758 mmHg 82%
    08:00 +18°C° 0.2 mm 4 mps 758 mmHg 81%
    09:00 +18°C° 0.2 mm 4 mps 758 mmHg 79%
    10:00 +20°C° 0.2 mm 3 mps 758 mmHg 72%
    11:00 +21°C° 0.2 mm 3 mps 758 mmHg 66%
    12:00 +23°C° 0.2 mm 2 mps 757 mmHg 60%
    13:00 +22°C° 0.4 mm 3 mps 757 mmHg 58%
    14:00 +22°C° 0.4 mm 3 mps 757 mmHg 56%
    15:00 +23°C° 0.4 mm 4 mps 757 mmHg 54%
    16:00 +22°C° 0.6 mm 3 mps 757 mmHg 58%
    17:00 +21°C° 0.6 mm 3 mps 757 mmHg 62%
    18:00 +20°C° 0.6 mm 3 mps 758 mmHg 67%
    19:00 +19°C° 0.2 mm 2 mps 758 mmHg 68%
    20:00 +19°C° 0.2 mm 2 mps 758 mmHg 70%
    21:00 +19°C° 0.2 mm 2 mps 758 mmHg 72%
    22:00 +18°C° 0 mm 2 mps 758 mmHg 72%
    23:00 +18°C° 0 mm 2 mps 758 mmHg 73%
    Show more